Precipitable_Water
0.28 0.21 0.20 0.21 0.22 0.26 0.28 0.26 0.27 0.25 0.24 0.24 0.23 0.22 0.20 0.20 0.18 0.17 0.24 0.31 0.30 0.25 0.21 0.21 0.24 0.22 0.22 0.25 0.28 0.29 0.31 0.29 0.30 0.32 0.36 0.41 0.47 0.49 0.50 0.53 0.70 0.74 0.77 0.75 0.76 0.77 0.81 0.94 0.92 0.86 0.86 0.84 0.87 0.84 0.86 0.80 0.85 0.88 0.85 0.87 0.79 0.80 0.74 0.73 0.75 0.72 0.72 0.71 0.73 0.70 0.68 0.65 0.66 0.74 0.59 0.64 0.76 0.77 0.78 0.79 0.78 0.81 0.86 0.85 0.82 0.84
0.21 0.18 0.21 0.25 0.28 0.30 0.30 0.25 0.22 0.22 0.23 0.21 0.20 0.19 0.19 0.18 0.19 0.20 0.24 0.29 0.29 0.20 0.20 0.20 0.21 0.25 0.25 0.28 0.31 0.32 0.31 0.27 0.28 0.30 0.33 0.36 0.40 0.42 0.45 0.49 0.56 0.81 0.84 0.81 0.71 0.74 0.79 0.96 0.87 0.87 0.81 0.83 0.78 0.80 0.83 0.81 0.84 0.88 0.91 0.89 0.83 0.77 0.72 0.72 0.79 0.75 0.71 0.71 0.73 0.67 0.67 0.67 0.63 0.59 0.65 0.60 0.59 0.54 0.56 0.54 0.53 0.54 0.54 0.57 0.60 0.60
0.17 0.15 0.25 0.28 0.28 0.26 0.26 0.23 0.21 0.18 0.19 0.19 0.18 0.21 0.18 0.19 0.18 0.27 0.27 0.28 0.27 0.20 0.20 0.23 0.25 0.27 0.27 0.25 0.29 0.31 0.29 0.26 0.27 0.30 0.32 0.33 0.36 0.41 0.42 0.46 0.54 0.67 0.82 0.83 0.76 0.74 0.77 0.76 0.76 0.75 0.77 0.77 0.77 0.76 0.79 0.83 0.88 0.91 0.93 0.96 0.86 0.77 0.70 0.70 0.80 0.74 0.72 0.73 0.69 0.74 0.60 0.66 0.66 0.74 0.70 0.65 0.57 0.55 0.52 0.49 0.52 0.54 0.57 0.58 0.61 0.63
0.16 0.21 0.27 0.28 0.25 0.22 0.19 0.21 0.22 0.20 0.19 0.20 0.18 0.15 0.16 0.19 0.18 0.19 0.28 0.29 0.26 0.21 0.19 0.22 0.21 0.27 0.29 0.27 0.33 0.36 0.33 0.29 0.28 0.31 0.33 0.33 0.37 0.39 0.39 0.42 0.51 0.61 0.74 0.78 0.80 0.73 0.80 0.76 0.69 0.68 0.67 0.69 0.73 0.74 0.76 0.82 0.85 0.91 0.94 0.96 0.89 0.78 0.72 0.71 0.76 0.77 0.81 0.79 0.72 0.72 0.61 0.61 0.60 0.56 0.55 0.54 0.58 0.57 0.57 0.57 0.63 0.65 0.69 0.68 0.69 0.69
0.20 0.31 0.33 0.28 0.23 0.21 0.22 0.22 0.22 0.19 0.18 0.19 0.19 0.19 0.17 0.19 0.21 0.22 0.28 0.36 0.37 0.31 0.24 0.23 0.23 0.24 0.23 0.24 0.28 0.31 0.31 0.30 0.33 0.33 0.34 0.38 0.38 0.41 0.42 0.45 0.48 0.49 0.59 0.69 0.67 0.72 0.72 0.73 0.72 0.64 0.64 0.69 0.69 0.73 0.74 0.82 0.87 0.92 0.95 1.00 0.91 0.81 0.77 0.70 0.73 0.81 0.84 0.80 0.73 0.70 0.62 0.56 0.47 0.46 0.49 0.53 0.57 0.59 0.56 0.59 0.63 0.62 0.65 0.64 0.61 0.63
0.17 0.27 0.29 0.25 0.22 0.20 0.22 0.24 0.21 0.23 0.19 0.21 0.22 0.21 0.22 0.24 0.24 0.28 0.30 0.30 0.28 0.26 0.27 0.17 0.14 0.15 0.19 0.21 0.22 0.31 0.35 0.33 0.31 0.27 0.28 0.31 0.33 0.36 0.40 0.43 0.50 0.57 0.56 0.62 0.68 0.65 0.74 0.70 0.72 0.75 0.71 0.69 0.71 0.74 0.79 0.85 0.88 0.94 0.99 1.03 0.95 0.84 0.80 0.73 0.72 0.82 0.82 0.72 0.68 0.59 0.47 0.39 0.41 0.44 0.49 0.54 0.52 0.58 0.59 0.56 0.62 0.64 0.66 0.68 0.68 0.67
0.24 0.30 0.24 0.22 0.21 0.21 0.22 0.22 0.27 0.25 0.19 0.20 0.24 0.28 0.22 0.22 0.27 0.27 0.25 0.26 0.20 0.15 0.23 0.31 0.18 0.16 0.19 0.21 0.26 0.30 0.34 0.34 0.31 0.28 0.27 0.28 0.30 0.29 0.29 0.33 0.37 0.46 0.50 0.58 0.68 0.62 0.72 0.77 0.73 0.74 0.78 0.78 0.75 0.79 0.85 0.88 0.90 0.96 0.98 1.01 0.96 0.86 0.80 0.76 0.73 0.84 0.77 0.71 0.66 0.58 0.49 0.43 0.45 0.46 0.55 0.59 0.61 0.60 0.57 0.62 0.61 0.61 0.66 0.67 0.64 0.64
0.23 0.26 0.23 0.23 0.23 0.23 0.22 0.19 0.24 0.25 0.20 0.18 0.30 0.31 0.29 0.22 0.21 0.23 0.24 0.23 0.19 0.20 0.26 0.25 0.26 0.20 0.18 0.22 0.27 0.32 0.34 0.34 0.36 0.34 0.30 0.30 0.32 0.32 0.33 0.35 0.35 0.40 0.50 0.53 0.55 0.66 0.69 0.73 0.76 0.73 0.76 0.83 0.87 0.91 0.91 0.91 0.93 0.94 0.95 1.02 0.97 0.89 0.80 0.77 0.75 0.81 0.77 0.74 0.66 0.60 0.54 0.48 0.48 0.52 0.53 0.54 0.58 0.58 0.59 0.58 0.63 0.64 0.66 0.67 0.66 0.65
0.26 0.25 0.23 0.22 0.22 0.23 0.22 0.24 0.27 0.30 0.23 0.24 0.33 0.31 0.27 0.25 0.24 0.25 0.24 0.22 0.22 0.21 0.18 0.23 0.25 0.18 0.17 0.20 0.26 0.33 0.31 0.29 0.29 0.34 0.37 0.35 0.35 0.36 0.37 0.37 0.40 0.43 0.45 0.46 0.47 0.52 0.62 0.66 0.77 0.82 0.76 0.80 0.87 0.93 0.95 0.95 0.95 0.97 0.97 1.03 0.97 0.92 0.84 0.79 0.76 0.80 0.79 0.78 0.68 0.62 0.58 0.49 0.54 0.56 0.52 0.56 0.55 0.54 0.57 0.58 0.62 0.65 0.65 0.64 0.65 0.65
0.32 0.27 0.27 0.23 0.24 0.22 0.22 0.25 0.29 0.32 0.24 0.30 0.32 0.31 0.29 0.28 0.27 0.29 0.26 0.25 0.23 0.23 0.19 0.21 0.24 0.20 0.18 0.20 0.22 0.30 0.28 0.27 0.28 0.30 0.38 0.41 0.41 0.40 0.40 0.41 0.41 0.40 0.41 0.40 0.41 0.44 0.46 0.52 0.63 0.77 0.82 0.79 0.81 0.87 0.94 1.01 1.05 1.00 0.98 1.00 0.97 0.94 0.87 0.81 0.79 0.79 0.78 0.80 0.71 0.61 0.58 0.52 0.54 0.52 0.50 0.54 0.53 0.55 0.55 0.56 0.56 0.57 0.58 0.54 0.57 0.58
0.29 0.25 0.26 0.22 0.20 0.21 0.24 0.25 0.27 0.28 0.27 0.38 0.33 0.26 0.25 0.27 0.27 0.28 0.27 0.25 0.23 0.18 0.20 0.24 0.24 0.23 0.18 0.21 0.22 0.26 0.32 0.33 0.29 0.34 0.40 0.43 0.43 0.42 0.43 0.39 0.40 0.40 0.42 0.41 0.42 0.43 0.46 0.48 0.49 0.62 0.76 0.81 0.81 0.83 0.86 0.93 1.01 1.02 1.01 0.94 0.91 0.94 0.91 0.86 0.80 0.77 0.74 0.76 0.72 0.64 0.61 0.57 0.56 0.52 0.50 0.52 0.50 0.53 0.54 0.51 0.52 0.56 0.54 0.56 0.54 0.51
0.22 0.22 0.19 0.20 0.20 0.21 0.22 0.22 0.27 0.26 0.28 0.29 0.25 0.24 0.25 0.26 0.28 0.28 0.27 0.28 0.20 0.17 0.22 0.23 0.23 0.26 0.18 0.19 0.21 0.25 0.38 0.38 0.35 0.36 0.39 0.39 0.38 0.40 0.38 0.38 0.38 0.39 0.39 0.40 0.41 0.42 0.44 0.46 0.48 0.52 0.67 0.80 0.81 0.81 0.83 0.85 0.92 0.95 1.01 0.94 0.87 0.88 0.87 0.87 0.78 0.73 0.71 0.75 0.73 0.67 0.65 0.60 0.59 0.52 0.50 0.50 0.48 0.51 0.53 0.51 0.52 0.56 0.53 0.53 0.53 0.52
0.25 0.22 0.24 0.24 0.24 0.20 0.19 0.16 0.20 0.22 0.24 0.24 0.25 0.23 0.21 0.23 0.26 0.23 0.26 0.21 0.20 0.19 0.24 0.26 0.27 0.24 0.21 0.20 0.23 0.31 0.33 0.36 0.37 0.35 0.39 0.38 0.37 0.37 0.35 0.35 0.38 0.40 0.41 0.42 0.43 0.46 0.47 0.45 0.45 0.48 0.62 0.79 0.80 0.78 0.80 0.83 0.85 0.91 0.96 0.93 0.88 0.83 0.85 0.84 0.75 0.70 0.72 0.75 0.74 0.71 0.65 0.63 0.63 0.54 0.51 0.54 0.51 0.52 0.54 0.52 0.54 0.54 0.55 0.51 0.50 0.50
0.23 0.26 0.25 0.24 0.23 0.21 0.18 0.13 0.18 0.21 0.23 0.22 0.22 0.23 0.22 0.18 0.18 0.17 0.20 0.22 0.22 0.24 0.27 0.27 0.28 0.22 0.22 0.23 0.28 0.31 0.33 0.34 0.32 0.34 0.34 0.35 0.34 0.34 0.35 0.37 0.39 0.43 0.43 0.42 0.46 0.48 0.51 0.47 0.49 0.56 0.69 0.79 0.84 0.86 0.84 0.83 0.84 0.85 0.89 0.90 0.87 0.83 0.83 0.81 0.75 0.70 0.72 0.76 0.80 0.76 0.70 0.67 0.64 0.58 0.55 0.58 0.55 0.54 0.56 0.55 0.55 0.54 0.58 0.55 0.54 0.51
0.16 0.17 0.20 0.22 0.20 0.22 0.18 0.16 0.18 0.23 0.26 0.26 0.27 0.23 0.22 0.22 0.20 0.15 0.17 0.16 0.17 0.20 0.27 0.28 0.22 0.19 0.18 0.19 0.31 0.37 0.36 0.32 0.31 0.29 0.31 0.32 0.33 0.36 0.37 0.38 0.42 0.44 0.43 0.43 0.47 0.51 0.52 0.57 0.60 0.69 0.74 0.78 0.85 0.87 0.85 0.83 0.79 0.83 0.87 0.90 0.88 0.85 0.81 0.79 0.76 0.71 0.72 0.77 0.81 0.76 0.74 0.69 0.68 0.64 0.63 0.61 0.63 0.59 0.59 0.60 0.57 0.55 0.58 0.58 0.59 0.56
0.14 0.15 0.23 0.28 0.27 0.25 0.19 0.19 0.20 0.20 0.21 0.25 0.27 0.27 0.23 0.22 0.25 0.19 0.22 0.21 0.22 0.22 0.22 0.26 0.23 0.24 0.26 0.37 0.38 0.36 0.32 0.29 0.27 0.28 0.28 0.30 0.33 0.36 0.37 0.38 0.41 0.43 0.44 0.44 0.45 0.54 0.58 0.57 0.68 0.70 0.73 0.77 0.82 0.85 0.83 0.81 0.80 0.83 0.88 0.91 0.90 0.87 0.82 0.81 0.78 0.72 0.72 0.76 0.80 0.76 0.72 0.70 0.70 0.71 0.69 0.66 0.71 0.69 0.66 0.66 0.61 0.57 0.60 0.62 0.63 0.64
0.16 0.12 0.21 0.22 0.21 0.19 0.18 0.21 0.20 0.19 0.13 0.21 0.21 0.20 0.24 0.28 0.24 0.21 0.21 0.23 0.21 0.18 0.15 0.20 0.21 0.21 0.31 0.26 0.32 0.31 0.27 0.28 0.26 0.28 0.29 0.30 0.33 0.35 0.35 0.38 0.41 0.44 0.45 0.45 0.46 0.52 0.61 0.66 0.68 0.75 0.72 0.77 0.80 0.80 0.81 0.82 0.83 0.84 0.88 0.92 0.90 0.87 0.87 0.84 0.80 0.74 0.73 0.75 0.76 0.77 0.74 0.74 0.73 0.74 0.74 0.71 0.72 0.77 0.72 0.73 0.68 0.61 0.62 0.65 0.67 0.67
0.17 0.17 0.22 0.23 0.20 0.20 0.20 0.19 0.20 0.21 0.17 0.17 0.17 0.22 0.26 0.26 0.24 0.21 0.16 0.18 0.19 0.15 0.14 0.17 0.15 0.16 0.19 0.20 0.33 0.31 0.26 0.27 0.27 0.26 0.29 0.33 0.32 0.33 0.35 0.37 0.41 0.44 0.47 0.49 0.50 0.52 0.58 0.66 0.73 0.75 0.77 0.76 0.74 0.80 0.82 0.83 0.86 0.88 0.88 0.88 0.86 0.89 0.89 0.86 0.84 0.78 0.75 0.73 0.76 0.77 0.76 0.75 0.77 0.81 0.82 0.80 0.79 0.83 0.79 0.76 0.73 0.68 0.65 0.66 0.69 0.71
0.25 0.15 0.16 0.19 0.20 0.24 0.26 0.20 0.17 0.18 0.19 0.15 0.15 0.23 0.19 0.17 0.18 0.21 0.18 0.13 0.13 0.14 0.15 0.17 0.18 0.17 0.18 0.20 0.29 0.29 0.27 0.29 0.29 0.28 0.30 0.30 0.31 0.33 0.35 0.37 0.40 0.44 0.47 0.48 0.51 0.53 0.56 0.61 0.68 0.76 0.79 0.81 0.79 0.77 0.81 0.85 0.86 0.86 0.84 0.89 0.93 0.92 0.95 0.95 0.90 0.84 0.83 0.80 0.80 0.82 0.79 0.79 0.81 0.85 0.89 0.89 0.87 0.88 0.84 0.81 0.79 0.75 0.73 0.71 0.71 0.73
0.25 0.14 0.13 0.20 0.19 0.22 0.22 0.19 0.12 0.15 0.19 0.21 0.18 0.15 0.19 0.18 0.16 0.17 0.18 0.19 0.19 0.15 0.16 0.16 0.18 0.17 0.24 0.26 0.28 0.30 0.31 0.30 0.30 0.29 0.31 0.32 0.34 0.35 0.35 0.37 0.38 0.40 0.42 0.45 0.49 0.53 0.56 0.59 0.65 0.73 0.78 0.79 0.79 0.77 0.78 0.79 0.80 0.83 0.90 0.94 0.95 0.97 0.97 0.98 0.94 0.93 0.89 0.87 0.84 0.86 0.86 0.86 0.88 0.89 0.89 0.89 0.90 0.92 0.86 0.85 0.84 0.81 0.79 0.75 0.75 0.77
0.20 0.23 0.14 0.17 0.23 0.23 0.17 0.19 0.15 0.14 0.15 0.19 0.20 0.19 0.19 0.19 0.22 0.19 0.20 0.18 0.17 0.17 0.16 0.15 0.15 0.19 0.25 0.29 0.28 0.30 0.34 0.34 0.33 0.32 0.33 0.35 0.37 0.38 0.38 0.37 0.37 0.38 0.40 0.43 0.46 0.50 0.54 0.58 0.62 0.68 0.74 0.78 0.77 0.76 0.78 0.80 0.80 0.84 0.91 0.93 0.96 0.96 0.94 0.93 0.97 0.97 0.97 0.97 0.94 0.89 0.83 0.86 0.89 0.90 0.92 0.92 0.92 0.92 0.91 0.87 0.86 0.84 0.85 0.84 0.81 0.80
0.16 0.16 0.14 0.15 0.16 0.17 0.21 0.21 0.22 0.24 0.24 0.23 0.25 0.24 0.23 0.20 0.18 0.17 0.16 0.21 0.19 0.16 0.15 0.15 0.14 0.18 0.25 0.29 0.29 0.31 0.36 0.35 0.35 0.35 0.37 0.38 0.39 0.40 0.40 0.39 0.38 0.39 0.41 0.43 0.44 0.47 0.49 0.54 0.58 0.61 0.67 0.72 0.73 0.74 0.74 0.79 0.82 0.85 0.85 0.89 0.93 0.96 0.97 0.97 0.95 0.96 0.94 0.89 0.84 0.80 0.83 0.90 0.91 0.92 0.86 0.88 0.96 0.96 0.98 0.86 0.90 0.85 0.85 0.78 0.88 0.85
0.26 0.24 0.19 0.15 0.16 0.15 0.17 0.22 0.26 0.25 0.24 0.22 0.21 0.20 0.23 0.23 0.23 0.20 0.15 0.18 0.22 0.21 0.21 0.19 0.17 0.18 0.35 0.36 0.32 0.32 0.35 0.37 0.38 0.37 0.38 0.40 0.40 0.40 0.40 0.40 0.40 0.41 0.40 0.42 0.43 0.44 0.46 0.48 0.50 0.53 0.56 0.59 0.66 0.72 0.76 0.78 0.79 0.83 0.85 0.87 0.88 0.93 0.98 1.00 1.00 0.99 1.00 0.98 0.96 0.95 0.93 0.91 0.88 0.92 0.91 0.85 0.89 1.00 1.03 0.98 0.97 0.98 0.92 0.81 0.81 0.85
0.24 0.18 0.13 0.12 0.12 0.12 0.11 0.14 0.16 0.20 0.19 0.18 0.18 0.19 0.19 0.16 0.18 0.18 0.20 0.22 0.20 0.20 0.18 0.18 0.16 0.20 0.34 0.40 0.36 0.37 0.36 0.38 0.38 0.38 0.39 0.43 0.41 0.39 0.39 0.39 0.38 0.38 0.40 0.42 0.43 0.44 0.46 0.46 0.47 0.48 0.47 0.50 0.54 0.58 0.65 0.72 0.76 0.79 0.79 0.82 0.84 0.84 0.90 0.98 1.02 1.03 1.00 0.99 0.98 1.01 1.03 1.00 0.94 0.93 0.96 0.93 0.86 0.86 0.95 1.04 0.98 0.95 0.97 0.96 0.88 0.85
0.18 0.19 0.14 0.10 0.09 0.11 0.13 0.15 0.15 0.16 0.18 0.17 0.15 0.18 0.19 0.19 0.19 0.20 0.22 0.24 0.20 0.20 0.20 0.18 0.14 0.18 0.35 0.42 0.37 0.37 0.37 0.37 0.37 0.38 0.41 0.41 0.41 0.40 0.41 0.41 0.41 0.40 0.40 0.41 0.41 0.43 0.44 0.43 0.43 0.43 0.45 0.46 0.46 0.48 0.50 0.53 0.60 0.68 0.72 0.74 0.76 0.77 0.84 0.88 0.95 0.98 1.00 1.01 1.01 1.04 1.04 1.03 1.04 1.04 1.06 1.09 1.06 1.01 0.98 0.99 0.98 0.97 1.02 1.00 0.97 0.89
0.20 0.18 0.18 0.14 0.12 0.11 0.09 0.08 0.10 0.13 0.17 0.24 0.24 0.21 0.18 0.18 0.22 0.22 0.19 0.21 0.18 0.18 0.19 0.16 0.14 0.19 0.33 0.36 0.32 0.33 0.34 0.35 0.36 0.38 0.41 0.45 0.42 0.41 0.42 0.42 0.42 0.42 0.42 0.41 0.42 0.42 0.42 0.42 0.44 0.44 0.44 0.45 0.46 0.46 0.46 0.47 0.48 0.49 0.54 0.59 0.63 0.66 0.71 0.79 0.85 0.85 0.87 0.93 0.97 0.96 0.96 0.97 1.03 1.09 1.08 1.06 1.09 1.12 1.09 1.11 1.07 1.03 0.99 1.02 1.00 0.93
0.16 0.19 0.17 0.16 0.14 0.13 0.15 0.15 0.18 0.20 0.20 0.18 0.21 0.22 0.21 0.24 0.25 0.25 0.24 0.21 0.16 0.17 0.19 0.20 0.21 0.24 0.28 0.31 0.32 0.34 0.34 0.35 0.36 0.36 0.35 0.41 0.42 0.42 0.42 0.42 0.42 0.42 0.42 0.42 0.42 0.42 0.42 0.42 0.42 0.43 0.44 0.45 0.45 0.44 0.46 0.47 0.48 0.49 0.50 0.51 0.54 0.56 0.59 0.62 0.66 0.71 0.74 0.78 0.75 0.77 0.81 0.90 0.97 1.01 0.99 1.05 1.07 1.08 1.06 1.11 1.03 1.00 1.00 1.03 1.02 0.98
0.19 0.15 0.17 0.18 0.18 0.17 0.17 0.16 0.15 0.17 0.17 0.17 0.18 0.19 0.21 0.21 0.22 0.24 0.23 0.19 0.21 0.18 0.13 0.17 0.21 0.21 0.23 0.29 0.30 0.34 0.37 0.37 0.37 0.40 0.39 0.40 0.44 0.41 0.42 0.41 0.40 0.40 0.42 0.43 0.42 0.41 0.40 0.41 0.42 0.43 0.45 0.45 0.46 0.47 0.46 0.47 0.48 0.49 0.50 0.51 0.53 0.55 0.59 0.61 0.63 0.63 0.64 0.63 0.65 0.66 0.66 0.69 0.72 0.77 0.78 0.85 0.89 0.88 0.93 1.01 1.06 1.04 1.01 1.00 1.01 0.99
0.18 0.16 0.20 0.20 0.19 0.21 0.22 0.21 0.20 0.17 0.18 0.19 0.19 0.20 0.20 0.20 0.20 0.20 0.21 0.23 0.23 0.19 0.15 0.19 0.23 0.23 0.26 0.30 0.31 0.33 0.36 0.36 0.38 0.39 0.41 0.43 0.47 0.42 0.41 0.39 0.37 0.40 0.41 0.42 0.42 0.41 0.41 0.40 0.40 0.41 0.42 0.43 0.45 0.43 0.46 0.47 0.46 0.47 0.47 0.48 0.48 0.48 0.48 0.52 0.55 0.57 0.59 0.61 0.61 0.61 0.66 0.69 0.73 0.73 0.78 0.83 0.85 0.87 0.90 0.89 0.93 0.98 1.04 1.06 1.04 1.02
0.23 0.18 0.18 0.19 0.19 0.19 0.20 0.19 0.20 0.20 0.20 0.20 0.19 0.20 0.21 0.20 0.20 0.21 0.21 0.22 0.23 0.22 0.23 0.24 0.24 0.23 0.25 0.28 0.31 0.30 0.34 0.36 0.35 0.38 0.39 0.38 0.40 0.41 0.40 0.38 0.36 0.38 0.41 0.46 0.45 0.42 0.41 0.41 0.41 0.41 0.41 0.42 0.43 0.44 0.45 0.45 0.45 0.46 0.46 0.45 0.46 0.44 0.44 0.46 0.44 0.44 0.44 0.46 0.48 0.49 0.52 0.54 0.57 0.63 0.70 0.72 0.73 0.77 0.82 0.83 0.85 0.86 0.87 0.94 1.01 1.03
0.27 0.19 0.24 0.22 0.19 0.17 0.18 0.19 0.20 0.20 0.20 0.19 0.20 0.21 0.21 0.21 0.22 0.22 0.22 0.22 0.23 0.23 0.23 0.24 0.23 0.22 0.28 0.34 0.32 0.33 0.34 0.35 0.35 0.34 0.36 0.39 0.43 0.43 0.41 0.39 0.38 0.36 0.40 0.44 0.46 0.44 0.43 0.42 0.43 0.43 0.43 0.43 0.43 0.41 0.44 0.42 0.45 0.47 0.49 0.46 0.45 0.44 0.44 0.45 0.42 0.41 0.42 0.41 0.40 0.41 0.40 0.42 0.44 0.45 0.47 0.57 0.66 0.69 0.70 0.72 0.75 0.78 0.80 0.82 0.84 0.89
0.27 0.22 0.24 0.21 0.17 0.16 0.18 0.19 0.19 0.19 0.19 0.19 0.19 0.19 0.20 0.21 0.20 0.21 0.21 0.22 0.23 0.21 0.24 0.26 0.23 0.21 0.27 0.30 0.30 0.30 0.30 0.30 0.31 0.34 0.32 0.33 0.37 0.38 0.39 0.38 0.37 0.39 0.43 0.46 0.46 0.44 0.43 0.43 0.42 0.43 0.42 0.42 0.41 0.41 0.41 0.39 0.41 0.43 0.45 0.45 0.42 0.44 0.44 0.44 0.43 0.41 0.43 0.42 0.40 0.40 0.39 0.39 0.39 0.39 0.41 0.44 0.48 0.57 0.63 0.68 0.70 0.70 0.72 0.75 0.76 0.76
0.26 0.24 0.20 0.20 0.17 0.16 0.19 0.21 0.20 0.21 0.21 0.17 0.17 0.19 0.21 0.22 0.21 0.22 0.22 0.23 0.24 0.26 0.24 0.21 0.21 0.26 0.28 0.31 0.33 0.31 0.30 0.30 0.30 0.33 0.35 0.35 0.40 0.41 0.41 0.41 0.39 0.42 0.45 0.46 0.45 0.44 0.43 0.42 0.43 0.43 0.42 0.42 0.42 0.40 0.41 0.38 0.38 0.41 0.41 0.40 0.40 0.42 0.42 0.41 0.42 0.43 0.42 0.41 0.40 0.40 0.40 0.39 0.39 0.40 0.41 0.43 0.47 0.53 0.58 0.58 0.62 0.64 0.64 0.66 0.71 0.71
0.26 0.25 0.22 0.23 0.18 0.17 0.21 0.22 0.22 0.19 0.14 0.13 0.24 0.28 0.27 0.23 0.23 0.21 0.21 0.22 0.25 0.26 0.25 0.27 0.28 0.30 0.33 0.36 0.34 0.33 0.36 0.35 0.37 0.38 0.41 0.41 0.43 0.46 0.44 0.41 0.42 0.46 0.49 0.47 0.45 0.44 0.43 0.44 0.44 0.44 0.44 0.42 0.43 0.43 0.41 0.39 0.40 0.42 0.41 0.40 0.41 0.40 0.39 0.37 0.39 0.40 0.41 0.40 0.40 0.40 0.40 0.40 0.41 0.41 0.41 0.41 0.41 0.43 0.52 0.57 0.54 0.58 0.59 0.59 0.62 0.65
0.23 0.23 0.22 0.23 0.20 0.18 0.21 0.21 0.18 0.13 0.13 0.20 0.28 0.29 0.28 0.26 0.24 0.22 0.23 0.25 0.25 0.28 0.29 0.29 0.30 0.31 0.33 0.35 0.37 0.39 0.40 0.41 0.45 0.45 0.47 0.46 0.46 0.46 0.44 0.43 0.43 0.46 0.49 0.48 0.45 0.44 0.46 0.44 0.43 0.43 0.42 0.43 0.44 0.40 0.40 0.42 0.45 0.44 0.43 0.44 0.41 0.40 0.38 0.38 0.38 0.37 0.37 0.37 0.37 0.38 0.39 0.39 0.38 0.37 0.36 0.36 0.37 0.38 0.38 0.43 0.50 0.52 0.54 0.51 0.52 0.55
0.23 0.23 0.23 0.22 0.21 0.20 0.18 0.17 0.12 0.12 0.19 0.23 0.26 0.30 0.31 0.24 0.22 0.21 0.19 0.20 0.23 0.24 0.24 0.22 0.22 0.27 0.30 0.32 0.35 0.37 0.35 0.39 0.41 0.39 0.39 0.42 0.43 0.41 0.41 0.43 0.45 0.46 0.48 0.49 0.48 0.49 0.47 0.46 0.44 0.42 0.42 0.44 0.39 0.41 0.41 0.43 0.44 0.43 0.43 0.43 0.41 0.39 0.38 0.36 0.35 0.35 0.35 0.33 0.34 0.35 0.38 0.37 0.35 0.35 0.34 0.33 0.34 0.34 0.35 0.38 0.45 0.52 0.55 0.52 0.50 0.52
0.27 0.25 0.23 0.20 0.22 0.16 0.17 0.16 0.15 0.19 0.19 0.21 0.23 0.27 0.28 0.25 0.26 0.25 0.20 0.23 0.29 0.31 0.31 0.28 0.28 0.28 0.28 0.30 0.33 0.33 0.36 0.36 0.33 0.33 0.40 0.41 0.41 0.43 0.46 0.50 0.52 0.48 0.49 0.53 0.53 0.51 0.51 0.48 0.45 0.45 0.44 0.42 0.42 0.40 0.41 0.42 0.43 0.42 0.42 0.42 0.41 0.39 0.37 0.36 0.35 0.35 0.35 0.34 0.35 0.37 0.38 0.37 0.35 0.33 0.33 0.33 0.32 0.33 0.36 0.37 0.42 0.49 0.53 0.52 0.52 0.49
0.26 0.22 0.23 0.19 0.18 0.20 0.16 0.15 0.15 0.15 0.14 0.18 0.29 0.33 0.37 0.37 0.35 0.32 0.28 0.23 0.29 0.32 0.31 0.29 0.29 0.29 0.28 0.31 0.32 0.33 0.35 0.30 0.28 0.30 0.37 0.38 0.40 0.41 0.42 0.46 0.51 0.50 0.49 0.50 0.51 0.49 0.48 0.48 0.46 0.45 0.42 0.40 0.38 0.38 0.39 0.42 0.44 0.43 0.42 0.41 0.41 0.40 0.38 0.37 0.36 0.36 0.35 0.34 0.35 0.38 0.40 0.38 0.36 0.34 0.33 0.33 0.31 0.32 0.34 0.37 0.41 0.46 0.51 0.50 0.51 0.51
0.25 0.26 0.24 0.21 0.19 0.20 0.18 0.15 0.14 0.13 0.16 0.28 0.28 0.33 0.35 0.35 0.35 0.33 0.26 0.19 0.27 0.31 0.33 0.31 0.29 0.29 0.31 0.31 0.32 0.33 0.30 0.24 0.27 0.35 0.39 0.40 0.40 0.40 0.40 0.40 0.41 0.43 0.45 0.45 0.43 0.42 0.42 0.44 0.44 0.41 0.38 0.38 0.37 0.40 0.43 0.43 0.42 0.41 0.40 0.40 0.41 0.40 0.38 0.37 0.36 0.36 0.34 0.34 0.36 0.37 0.38 0.38 0.38 0.37 0.35 0.34 0.34 0.34 0.34 0.36 0.39 0.45 0.49 0.49 0.49 0.51
0.22 0.23 0.23 0.21 0.19 0.19 0.19 0.17 0.15 0.18 0.18 0.29 0.31 0.33 0.34 0.34 0.35 0.29 0.16 0.16 0.32 0.33 0.33 0.33 0.30 0.31 0.33 0.34 0.34 0.31 0.28 0.23 0.26 0.36 0.42 0.43 0.43 0.42 0.40 0.40 0.41 0.42 0.41 0.41 0.40 0.41 0.42 0.42 0.39 0.38 0.38 0.38 0.40 0.42 0.43 0.42 0.42 0.41 0.40 0.39 0.39 0.38 0.38 0.39 0.38 0.38 0.36 0.35 0.36 0.38 0.39 0.39 0.38 0.40 0.40 0.39 0.38 0.37 0.36 0.36 0.37 0.44 0.49 0.51 0.51 0.50
0.21 0.21 0.22 0.18 0.19 0.19 0.19 0.17 0.18 0.19 0.28 0.31 0.32 0.34 0.34 0.34 0.30 0.18 0.14 0.21 0.32 0.34 0.34 0.33 0.32 0.32 0.33 0.33 0.34 0.29 0.31 0.34 0.38 0.41 0.42 0.44 0.43 0.41 0.42 0.43 0.43 0.42 0.41 0.40 0.41 0.42 0.42 0.41 0.40 0.39 0.40 0.40 0.41 0.41 0.42 0.42 0.42 0.42 0.42 0.41 0.41 0.40 0.40 0.41 0.41 0.39 0.38 0.36 0.36 0.37 0.38 0.38 0.38 0.39 0.40 0.42 0.41 0.39 0.38 0.39 0.39 0.43 0.47 0.48 0.52 0.53
0.22 0.23 0.23 0.23 0.19 0.17 0.18 0.16 0.16 0.19 0.32 0.34 0.33 0.32 0.32 0.26 0.17 0.16 0.28 0.34 0.35 0.33 0.34 0.34 0.32 0.33 0.33 0.32 0.33 0.33 0.34 0.37 0.40 0.42 0.42 0.42 0.42 0.43 0.43 0.42 0.42 0.42 0.42 0.42 0.42 0.41 0.40 0.40 0.41 0.41 0.42 0.42 0.43 0.44 0.44 0.43 0.42 0.42 0.42 0.41 0.41 0.42 0.44 0.43 0.43 0.42 0.40 0.39 0.38 0.38 0.39 0.40 0.40 0.41 0.41 0.42 0.41 0.39 0.38 0.40 0.43 0.44 0.47 0.49 0.52 0.53
0.21 0.19 0.18 0.17 0.20 0.19 0.18 0.15 0.15 0.13 0.26 0.33 0.32 0.29 0.30 0.21 0.21 0.29 0.30 0.32 0.33 0.32 0.31 0.31 0.31 0.32 0.33 0.32 0.34 0.35 0.36 0.37 0.37 0.39 0.41 0.41 0.41 0.41 0.41 0.41 0.40 0.40 0.41 0.41 0.41 0.41 0.39 0.37 0.37 0.37 0.38 0.39 0.41 0.43 0.43 0.42 0.41 0.42 0.43 0.41 0.42 0.44 0.44 0.43 0.43 0.43 0.42 0.41 0.40 0.40 0.42 0.42 0.40 0.39 0.41 0.42 0.43 0.42 0.39 0.40 0.42 0.46 0.48 0.51 0.53 0.57
0.23 0.18 0.17 0.18 0.21 0.15 0.15 0.14 0.15 0.22 0.26 0.29 0.28 0.22 0.26 0.28 0.30 0.31 0.30 0.27 0.29 0.29 0.29 0.29 0.30 0.31 0.32 0.32 0.32 0.33 0.34 0.34 0.34 0.35 0.36 0.37 0.38 0.38 0.39 0.40 0.40 0.40 0.40 0.40 0.39 0.38 0.38 0.37 0.37 0.36 0.37 0.37 0.38 0.40 0.41 0.42 0.41 0.41 0.41 0.42 0.46 0.45 0.43 0.42 0.41 0.41 0.39 0.39 0.39 0.40 0.41 0.43 0.43 0.42 0.42 0.44 0.45 0.45 0.43 0.40 0.43 0.46 0.49 0.51 0.55 0.58
0.18 0.16 0.19 0.16 0.22 0.19 0.17 0.19 0.24 0.26 0.25 0.26 0.26 0.26 0.27 0.28 0.29 0.29 0.28 0.27 0.26 0.26 0.28 0.27 0.28 0.30 0.31 0.32 0.31 0.31 0.30 0.31 0.32 0.34 0.34 0.34 0.35 0.35 0.35 0.36 0.37 0.37 0.38 0.38 0.38 0.39 0.38 0.36 0.36 0.36 0.37 0.38 0.39 0.39 0.40 0.41 0.40 0.39 0.39 0.41 0.44 0.44 0.42 0.41 0.39 0.39 0.39 0.39 0.39 0.40 0.41 0.44 0.46 0.44 0.43 0.46 0.47 0.44 0.42 0.40 0.45 0.46 0.52 0.55 0.56 0.55
0.21 0.22 0.23 0.20 0.18 0.22 0.22 0.21 0.22 0.21 0.21 0.22 0.25 0.25 0.24 0.24 0.25 0.24 0.23 0.22 0.24 0.24 0.25 0.25 0.27 0.28 0.29 0.30 0.29 0.28 0.29 0.29 0.29 0.30 0.31 0.32 0.33 0.34 0.35 0.35 0.34 0.35 0.35 0.36 0.37 0.37 0.36 0.36 0.36 0.36 0.36 0.36 0.37 0.37 0.38 0.38 0.38 0.38 0.40 0.42 0.40 0.40 0.41 0.40 0.38 0.35 0.34 0.34 0.36 0.37 0.38 0.39 0.42 0.44 0.45 0.47 0.47 0.44 0.41 0.44 0.49 0.52 0.57 0.55 0.52 0.51
0.19 0.22 0.19 0.16 0.19 0.17 0.13 0.18 0.18 0.20 0.22 0.22 0.21 0.22 0.22 0.23 0.22 0.23 0.23 0.23 0.24 0.25 0.26 0.27 0.26 0.26 0.27 0.27 0.26 0.25 0.25 0.26 0.26 0.26 0.27 0.27 0.28 0.29 0.30 0.30 0.30 0.31 0.31 0.31 0.32 0.34 0.34 0.34 0.34 0.34 0.35 0.36 0.39 0.40 0.41 0.39 0.39 0.37 0.38 0.39 0.41 0.42 0.43 0.41 0.40 0.38 0.37 0.36 0.35 0.34 0.34 0.34 0.36 0.38 0.41 0.44 0.45 0.46 0.47 0.53 0.54 0.54 0.52 0.52 0.48 0.47
0.18 0.25 0.18 0.18 0.17 0.16 0.16 0.19 0.20 0.19 0.19 0.20 0.20 0.19 0.20 0.20 0.21 0.22 0.23 0.24 0.25 0.26 0.26 0.26 0.26 0.25 0.25 0.24 0.25 0.24 0.24 0.25 0.25 0.25 0.25 0.25 0.25 0.25 0.25 0.25 0.26 0.28 0.29 0.30 0.30 0.31 0.31 0.32 0.33 0.33 0.34 0.35 0.38 0.38 0.38 0.37 0.36 0.37 0.38 0.39 0.39 0.40 0.42 0.41 0.40 0.39 0.38 0.38 0.38 0.37 0.36 0.36 0.38 0.38 0.37 0.39 0.44 0.46 0.52 0.55 0.57 0.54 0.51 0.50 0.48 0.44
0.20 0.22 0.16 0.17 0.15 0.16 0.17 0.17 0.18 0.19 0.19 0.20 0.19 0.20 0.21 0.22 0.23 0.25 0.26 0.26 0.26 0.26 0.27 0.28 0.29 0.28 0.27 0.26 0.26 0.25 0.24 0.24 0.25 0.25 0.25 0.24 0.24 0.24 0.24 0.25 0.26 0.27 0.29 0.29 0.30 0.31 0.31 0.32 0.32 0.32 0.33 0.33 0.35 0.36 0.36 0.35 0.33 0.33 0.32 0.32 0.35 0.37 0.37 0.35 0.34 0.35 0.35 0.37 0.37 0.36 0.38 0.39 0.41 0.44 0.44 0.47 0.50 0.53 0.54 0.54 0.56 0.54 0.53 0.54 0.53 0.44
0.19 0.16 0.18 0.17 0.15 0.15 0.15 0.17 0.19 0.15 0.15 0.18 0.20 0.23 0.25 0.27 0.28 0.29 0.30 0.30 0.30 0.29 0.30 0.30 0.31 0.32 0.32 0.31 0.31 0.30 0.28 0.28 0.27 0.26 0.25 0.25 0.25 0.25 0.26 0.27 0.29 0.29 0.29 0.30 0.31 0.33 0.33 0.33 0.32 0.32 0.32 0.33 0.34 0.35 0.35 0.34 0.34 0.33 0.32 0.33 0.34 0.35 0.35 0.36 0.35 0.36 0.37 0.36 0.37 0.38 0.38 0.40 0.42 0.45 0.49 0.50 0.51 0.49 0.53 0.57 0.59 0.54 0.47 0.45 0.44 0.43
0.18 0.18 0.17 0.15 0.15 0.14 0.17 0.19 0.21 0.21 0.22 0.25 0.27 0.29 0.31 0.31 0.29 0.28 0.28 0.28 0.28 0.31 0.32 0.32 0.31 0.32 0.32 0.33 0.34 0.32 0.30 0.30 0.31 0.31 0.29 0.28 0.29 0.31 0.31 0.32 0.32 0.32 0.33 0.34 0.33 0.33 0.33 0.34 0.34 0.34 0.33 0.34 0.35 0.35 0.35 0.36 0.35 0.34 0.35 0.36 0.36 0.36 0.36 0.36 0.37 0.38 0.39 0.40 0.39 0.38 0.39 0.40 0.42 0.50 0.53 0.53 0.51 0.51 0.50 0.50 0.51 0.49 0.46 0.45 0.44 0.44
Wind_Speed
8 9 10 10 8 7 8 9 8 8 8 8 9 10 10 10 13 13 8 8 10 11 14 15 14 16 17 14 12 12 14 16 16 17 17 17 17 17 17 17 17 17 17 18 18 18 20 19 16 15 14 14 14 13 13 12 12 11 11 10 10 10 9 9 10 9 9 9 9 9 9 10 10 10 11 12 12 13 13 13 14 14 14 14 15 15
8 10 11 9 7 7 8 9 10 10 10 11 11 11 11 11 11 12 10 9 10 12 14 15 14 15 16 16 14 14 15 17 18 18 18 18 18 18 18 18 17 16 17 18 19 19 21 19 17 16 16 16 16 15 14 14 13 12 12 11 10 10 10 10 10 9 9 9 9 9 9 10 10 10 11 11 12 12 13 13 13 13 14 14 14 14
10 12 12 9 8 8 9 10 11 11 12 12 12 12 12 12 11 8 9 10 10 11 13 13 14 15 17 17 16 15 15 17 18 18 18 19 19 18 18 17 17 17 17 17 18 19 20 20 18 18 17 18 18 17 16 15 14 13 12 12 11 10 10 10 10 10 10 9 9 9 9 9 9 9 10 10 11 11 11 12 12 12 12 12 13 13
10 9 9 8 9 10 10 11 11 11 12 12 13 13 12 13 13 10 10 12 12 12 14 14 13 13 14 15 15 15 15 15 15 16 17 18 18 18 18 17 17 18 18 17 17 18 19 20 20 20 19 19 18 18 18 17 16 15 14 13 12 11 10 11 10 10 10 9 9 9 8 8 9 9 10 10 10 10 10 10 11 11 11 11 11 12
11 7 7 7 9 11 11 11 12 12 12 13 14 14 13 13 13 12 10 10 11 12 14 15 14 14 15 17 16 16 15 15 15 16 16 17 18 18 18 17 17 18 19 19 18 18 20 20 20 21 20 20 19 20 20 19 18 16 15 14 13 12 11 12 11 11 11 10 10 9 8 8 8 9 9 10 10 10 10 10 10 10 10 10 11 11
12 9 10 11 10 12 13 12 13 13 13 13 14 15 15 14 12 12 11 11 12 12 13 14 15 15 16 17 17 15 14 15 15 16 17 17 17 17 17 18 17 17 18 19 18 19 20 20 20 21 22 21 21 21 21 21 20 18 17 16 15 13 13 12 12 12 11 11 10 9 9 8 8 8 9 9 9 9 9 9 9 9 9 10 10 10
11 10 11 12 12 13 13 13 13 13 13 13 12 14 16 15 14 14 14 14 14 12 11 13 14 13 13 13 14 14 14 14 14 15 16 16 17 17 17 17 17 17 17 18 19 19 20 20 21 21 22 23 23 23 22 22 21 20 18 17 16 15 14 14 13 12 12 12 11 10 9 9 8 8 8 8 8 9 9 9 9 9 9 9 9 9
11 11 11 12 13 13 13 14 13 13 14 12 10 11 14 15 15 15 16 16 15 14 12 14 15 15 14 12 12 13 14 13 13 14 15 15 16 17 16 16 16 16 16 17 18 19 19 20 21 22 22 23 24 24 24 23 23 22 20 19 18 16 15 15 14 13 13 12 12 11 10 9 9 8 8 8 9 9 9 9 9 9 9 9 9 9
11 12 12 13 13 13 13 13 12 13 14 12 11 12 13 14 15 15 15 16 15 15 15 15 15 16 16 14 12 13 15 15 15 14 14 14 14 15 16 16 16 17 17 17 18 19 19 20 22 22 23 23 24 25 25 25 24 24 22 20 19 18 16 16 15 14 13 13 12 12 11 10 9 9 8 9 9 9 9 9 9 9 9 9 9 9
11 12 12 13 13 13 14 12 10 12 13 11 12 14 14 14 15 14 14 15 14 15 16 16 15 15 15 14 13 14 15 17 16 14 13 13 13 14 15 16 17 17 18 18 19 19 20 21 22 23 23 24 24 25 26 26 26 25 24 22 21 20 18 17 16 14 14 13 13 12 11 10 9 9 9 9 9 9 9 9 9 9 8 8 8 7
10 11 12 13 13 14 14 13 12 13 14 12 13 14 14 14 14 14 14 15 15 15 16 17 16 15 14 13 13 13 12 13 13 13 12 11 11 12 14 15 16 16 17 18 19 19 20 21 23 24 25 25 25 25 25 26 26 27 26 24 23 21 19 18 16 15 15 14 14 13 12 11 10 9 9 9 9 9 9 9 8 8 7 7 7 7
11 12 13 13 14 14 14 14 14 15 15 14 14 14 13 13 13 13 14 14 15 15 15 16 15 15 15 13 12 11 11 10 10 12 12 12 11 11 12 13 14 16 17 18 19 19 20 21 22 24 26 26 26 26 27 26 27 27 27 26 25 23 21 19 17 16 15 15 14 13 13 12 11 10 10 9 9 9 8 8 8 7 7 6 6 6
12 14 13 12 12 13 14 14 13 13 14 14 14 13 12 12 12 13 13 13 14 13 12 12 13 14 15 14 11 11 12 12 12 12 12 13 12 12 12 13 13 15 16 17 18 19 20 21 22 24 25 26 26 27 27 27 27 28 28 27 26 23 22 20 18 17 16 15 15 14 14 13 12 11 10 10 10 9 9 8 8 7 7 6 6 6
11 12 12 11 10 11 13 13 12 11 12 14 14 13 12 11 12 13 12 12 13 12 10 10 11 13 14 13 11 11 11 11 13 13 12 13 12 12 13 13 12 13 14 15 16 17 18 20 21 22 23 24 25 26 27 27 27 28 28 28 26 24 23 21 19 18 18 17 16 15 15 14 13 13 12 11 10 10 10 9 8 8 7 7 7 6
10 9 10 9 7 8 11 13 12 10 11 13 13 13 13 12 12 13 12 11 11 9 10 10 10 13 13 11 10 11 11 11 12 12 12 13 13 13 13 12 12 12 12 13 14 15 16 17 18 19 21 22 24 24 25 26 26 27 27 27 26 25 24 22 20 20 19 18 17 16 16 15 14 14 13 12 11 11 11 10 9 9 8 8 7 7
11 10 9 9 8 8 10 11 11 11 11 11 12 13 14 12 13 13 13 13 11 10 11 11 11 11 10 10 11 11 11 11 11 12 12 12 13 13 12 12 12 11 11 12 12 13 14 14 15 17 18 19 20 22 23 24 24 25 25 26 26 25 24 23 22 21 20 19 18 17 17 16 15 14 14 13 12 12 12 11 10 10 9 9 8 8
11 9 7 9 11 11 10 9 10 11 10 9 10 13 13 12 12 13 14 12 12 14 15 14 15 13 11 11 13 12 12 11 12 12 12 11 12 12 12 12 12 11 10 11 11 11 12 12 13 15 16 16 17 19 20 21 22 23 23 24 25 25 24 23 23 22 21 20 19 19 18 18 17 16 15 14 14 13 13 12 12 11 10 10 10 9
10 11 9 10 12 11 10 11 11 12 12 11 10 10 11 12 12 12 13 11 12 14 15 15 16 16 14 12 12 13 14 13 13 13 12 11 11 11 11 11 11 10 10 10 10 10 10 11 11 13 14 15 15 16 18 19 21 21 22 23 25 25 24 23 22 22 22 21 21 20 20 19 18 17 16 16 15 15 14 14 13 13 12 12 11 11
10 12 13 13 13 10 10 13 13 14 15 14 13 11 10 11 12 12 12 12 13 14 13 14 16 15 15 13 12 14 14 14 14 13 12 12 11 10 10 10 9 9 9 9 10 10 10 10 10 11 12 13 15 15 17 18 19 20 21 22 24 24 23 22 22 22 22 22 22 21 21 21 20 19 18 17 16 16 16 16 15 15 14 14 13 13
11 13 13 12 12 11 11 13 14 14 14 15 15 14 13 13 12 12 12 12 13 14 13 14 14 13 12 12 12 14 14 14 14 13 12 12 11 10 10 9 9 9 9 9 9 9 9 9 9 10 11 12 12 13 15 16 17 19 20 22 23 23 23 22 22 21 22 22 21 21 22 22 21 21 20 19 18 18 18 18 17 16 16 15 15 15
12 13 14 13 12 12 12 13 14 13 12 13 14 14 14 14 14 14 14 14 15 14 13 14 14 13 11 10 10 12 14 14 14 13 13 12 11 10 9 8 8 8 8 8 9 9 8 8 8 9 11 12 11 11 12 13 15 17 19 20 21 22 22 22 22 21 21 21 21 22 22 22 22 22 21 20 20 20 20 19 19 18 17 17 17 16
14 14 15 15 15 15 14 12 13 13 13 13 13 13 13 14 14 15 15 15 15 16 15 14 15 13 11 11 12 12 13 14 14 13 13 12 11 10 10 9 9 9 9 9 9 9 9 8 8 8 9 11 11 12 12 13 14 15 16 18 20 21 22 23 23 23 22 22 22 23 23 23 23 23 23 23 21 21 20 21 21 19 19 19 19 19
13 14 16 17 17 18 18 15 15 16 16 17 17 16 15 15 15 16 16 15 15 17 17 16 16 14 11 12 13 13 14 14 14 14 14 13 12 12 11 11 10 10 10 10 10 10 10 9 9 9 8 9 10 12 13 15 16 16 17 17 18 20 21 22 23 23 23 23 23 23 23 23 24 24 24 25 25 24 22 22 22 22 21 20 21 21
15 16 18 19 19 20 21 20 19 18 19 20 21 20 19 19 19 19 18 17 17 18 17 17 17 14 12 12 12 12 13 14 15 15 15 14 13 13 13 12 12 12 12 12 12 12 12 12 11 11 10 10 10 11 12 14 16 18 19 19 19 19 20 22 22 23 23 23 23 23 23 24 25 25 25 25 26 27 26 25 24 24 24 23 22 22
16 17 18 19 18 18 19 20 20 19 19 19 21 21 22 22 21 20 20 19 19 21 20 19 19 16 13 14 13 12 13 14 15 16 16 15 15 15 15 15 14 14 14 14 14 14 14 14 14 13 12 12 12 12 12 13 14 16 18 19 19 20 20 22 23 22 22 22 23 23 23 23 24 26 27 27 27 28 27 26 26 26 26 25 25 24
18 18 18 18 18 17 17 17 16 16 17 17 18 21 22 21 20 20 20 20 21 22 21 21 21 16 14 15 15 15 16 16 16 17 17 17 17 17 17 17 16 16 16 16 16 16 16 16 16 15 14 14 14 14 14 14 14 15 16 18 19 19 19 20 22 23 22 22 22 22 23 23 24 25 27 28 28 28 27 26 26 27 27 27 26 26
20 20 22 22 22 22 21 20 19 18 19 19 19 20 20 20 21 21 20 22 22 22 23 23 22 20 18 18 17 17 18 18 17 18 19 19 19 19 19 18 19 19 19 18 18 18 18 18 18 17 17 16 16 16 15 15 15 15 15 16 17 18 19 19 21 22 23 23 23 22 23 24 24 24 24 25 25 26 26 26 26 26 27 27 27 27
21 22 24 25 26 27 26 27 26 25 25 25 24 24 24 24 24 23 23 24 24 23 24 24 22 22 21 20 19 18 18 19 19 19 20 20 19 20 20 20 20 20 20 20 20 20 19 19 19 19 19 19 19 18 18 18 17 17 17 17 17 18 18 19 20 21 23 24 24 24 24 24 24 25 25 25 25 25 26 25 25 26 26 27 28 28
22 24 24 25 27 28 28 28 28 28 28 29 28 28 28 29 29 28 27 28 26 26 27 26 24 24 23 21 21 19 19 20 21 21 21 21 21 21 22 22 21 21 21 21 20 20 20 19 19 19 19 20 20 20 20 20 20 20 20 19 19 19 19 20 20 21 22 23 24 24 24 24 25 25 26 26 27 27 26 26 26 26 26 27 28 28
22 23 24 25 27 28 28 28 28 28 29 30 30 31 30 31 31 31 31 31 30 30 31 30 30 29 27 24 23 22 21 21 22 22 23 23 23 23 24 24 24 23 22 21 21 20 20 19 19 19 20 20 21 21 22 22 22 22 22 21 21 21 21 21 21 22 22 23 23 24 25 25 25 25 25 25 26 26 26 27 27 27 27 28 28 29
21 22 23 24 26 27 28 28 28 29 30 31 32 32 32 32 32 32 32 31 31 31 31 30 31 31 28 27 28 28 28 27 27 27 27 26 26 26 26 26 26 25 24 23 22 21 21 21 21 20 21 21 22 22 23 23 23 23 23 23 23 23 23 23 23 23 24 24 24 25 26 26 27 27 26 26 26 26 26 27 27 27 28 28 29 29
20 22 23 23 25 27 26 26 28 29 30 32 33 32 32 32 31 31 30 30 29 29 29 29 30 29 27 27 28 30 31 31 31 30 29 29 29 29 29 28 27 26 25 25 25 24 22 22 22 22 22 22 23 23 23 24 24 24 24 24 25 25 25 25 25 25 25 26 26 27 27 27 28 28 28 28 28 29 29 29 29 30 30 30 30 30
21 22 22 22 24 26 25 26 26 26 28 29 28 28 30 30 31 32 31 31 30 29 29 29 29 28 26 26 26 27 29 29 29 29 29 28 28 28 28 27 27 27 26 26 26 25 24 23 23 23 23 24 24 25 25 25 25 25 25 25 26 26 26 26 27 27 27 27 28 28 28 29 29 29 29 30 30 31 31 31 32 32 32 32 32 33
23 23 23 22 24 25 25 24 25 25 26 25 22 22 25 26 27 29 29 29 29 27 28 29 28 28 27 27 27 27 27 26 26 26 26 26 26 27 28 28 28 27 26 26 26 26 26 25 24 24 24 25 25 26 26 26 26 26 26 26 26 27 27 27 28 28 28 29 29 29 30 30 30 31 31 31 32 32 33 33 33 33 33 34 34 34
24 24 24 23 24 25 25 24 25 26 26 23 21 21 22 23 24 26 27 28 27 27 28 29 29 28 28 28 28 28 27 27 26 26 27 27 28 29 29 29 28 27 26 27 27 27 26 26 26 25 26 26 26 27 27 27 27 27 28 27 27 28 28 28 28 29 29 30 30 30 31 31 31 32 32 32 33 33 33 34 34 34 34 35 35 36
24 24 24 24 24 25 24 24 25 25 24 22 22 22 22 22 23 25 26 27 26 26 27 27 28 27 27 28 28 28 27 28 27 26 26 27 28 29 29 28 28 28 27 27 28 28 28 27 27 27 27 27 27 28 28 28 28 28 28 28 28 28 29 29 29 30 30 30 31 31 31 31 32 32 32 32 33 33 34 34 34 34 34 35 35 36
24 24 23 24 24 24 24 25 25 26 25 23 22 21 21 22 22 23 25 25 24 24 25 25 25 25 26 27 28 28 27 27 27 25 24 23 25 26 27 27 27 28 28 27 28 29 29 28 28 28 28 28 28 28 29 29 29 29 29 29 29 29 29 30 30 31 31 31 31 31 31 31 32 32 32 32 32 33 33 34 34 34 34 34 35 35
23 23 22 23 23 22 23 24 23 24 24 21 19 19 20 21 21 21 23 24 23 22 23 24 24 25 26 27 27 26 26 26 25 23 22 22 22 23 25 25 26 28 28 28 28 28 28 28 29 29 29 29 29 30 30 30 30 30 30 30 30 30 31 31 31 31 32 32 32 32 32 32 32 32 32 32 32 32 32 33 33 34 34 34 34 34
22 22 21 22 23 22 23 23 22 23 21 18 17 18 19 20 20 21 23 23 21 21 22 23 24 24 25 26 26 26 26 25 23 22 22 23 23 23 23 24 25 26 27 28 28 28 28 29 29 29 30 30 30 30 30 31 31 31 32 32 32 32 32 32 32 32 33 33 33 33 33 33 33 33 32 32 32 32 32 32 33 33 33 33 34 34
21 20 21 23 23 23 23 24 23 23 21 19 19 20 20 20 21 22 23 21 20 22 23 23 24 24 25 26 26 25 25 24 22 22 24 26 26 25 24 24 25 26 27 28 28 28 28 29 30 30 30 30 30 31 31 32 32 32 33 33 33 33 33 33 33 33 33 34 34 34 34 33 33 33 33 33 33 33 33 33 33 33 33 33 33 34
19 20 21 22 23 23 24 25 24 23 21 20 22 23 23 22 23 23 23 22 22 24 24 25 26 26 26 26 27 26 26 25 24 25 26 27 27 27 27 26 27 27 28 28 29 29 29 30 30 30 30 31 31 32 32 32 33 33 34 34 34 34 34 34 34 34 34 34 34 34 34 34 34 34 34 34 34 34 34 34 34 34 34 33 33 33
20 20 21 22 23 23 24 25 25 23 21 21 23 24 24 24 24 24 24 24 25 26 26 27 28 28 28 28 28 28 28 28 28 28 28 28 28 28 29 29 29 29 29 29 30 30 31 31 32 32 32 32 32 33 33 33 34 34 35 35 35 35 35 34 34 34 34 35 35 35 35 35 35 35 35 35 35 35 35 35 35 35 34 34 34 33
20 21 21 22 22 23 24 25 24 23 21 22 23 23 22 23 24 25 26 27 27 28 28 29 29 29 29 30 30 30 30 30 30 30 30 31 31 31 31 31 31 32 32 32 32 33 33 34 34 34 34 34 34 34 34 35 35 36 36 36 36 35 35 35 35 35 35 35 35 35 35 35 35 35 35 35 35 36 35 35 35 35 35 34 34 32
20 21 22 21 20 21 23 22 21 21 21 23 24 24 24 25 27 27 28 28 29 29 29 30 30 30 30 30 31 32 32 32 32 32 33 33 33 33 33 34 34 34 35 35 35 35 36 36 36 36 36 36 35 35 35 36 36 37 37 37 37 36 36 36 36 36 36 36 35 35 35 35 35 35 35 35 34 34 35 35 35 35 34 34 32 31
19 20 21 21 21 21 23 24 23 24 26 26 26 26 28 29 29 29 30 30 30 30 30 30 31 31 31 31 32 32 33 33 34 34 34 34 34 35 35 35 36 36 36 37 37 37 37 38 38 38 37 37 37 37 37 37 37 38 38 38 37 37 37 37 37 37 36 36 35 35 35 35 35 34 34 34 34 34 35 35 35 34 33 32 31 30
19 20 21 22 23 24 25 27 27 27 27 27 27 28 29 30 30 31 31 31 31 31 31 31 31 32 32 32 33 33 34 34 35 35 36 36 36 36 36 37 37 37 37 38 38 38 38 38 39 39 39 39 39 39 39 39 39 39 39 38 38 38 38 38 38 37 37 37 36 36 35 35 35 35 35 34 34 34 34 33 32 31 30 29 29 29
18 19 21 22 23 23 24 24 25 25 26 27 28 28 29 29 29 29 29 30 30 31 31 31 32 33 33 34 34 35 35 36 36 37 37 37 37 38 38 38 39 39 39 39 39 39 39 39 39 40 40 40 40 40 40 40 40 40 39 39 39 39 39 38 38 38 37 37 36 36 36 36 35 35 35 34 33 32 31 30 29 29 28 28 27 27
16 17 19 21 22 23 24 24 25 27 27 27 27 27 27 27 27 28 28 29 30 31 31 32 33 33 34 34 35 36 37 37 37 37 37 37 38 38 38 39 39 39 39 39 40 40 40 40 40 40 40 40 40 40 40 41 40 40 39 39 39 39 39 39 39 38 37 36 35 35 35 35 34 34 33 33 31 30 29 28 27 27 27 27 27 26
18 19 19 20 21 22 23 23 24 24 25 25 25 25 26 26 27 28 29 30 31 32 32 33 33 34 34 35 35 36 37 37 38 38 38 38 38 38 38 39 39 39 39 39 40 40 40 41 41 42 42 41 41 40 40 40 40 39 39 38 38 37 38 38 38 38 37 36 35 34 33 33 32 31 31 30 29 27 27 27 26 25 25 25 25 25
19 19 19 20 21 21 21 21 22 23 23 24 25 26 27 28 28 29 30 31 31 32 32 33 33 33 34 34 35 35 36 37 37 38 38 38 38 38 38 38 39 39 39 39 40 40 40 40 40 41 41 41 40 40 40 40 39 39 38 37 37 36 37 37 37 36 36 35 34 32 31 30 30 30 29 28 26 25 24 24 23 23 23 23 23 21
17 17 18 20 21 21 22 23 24 24 25 25 26 27 28 28 29 30 30 30 30 30 31 31 32 32 32 33 33 34 35 36 36 37 37 37 37 38 38 38 38 39 39 39 39 39 39 39 39 39 39 39 39 39 39 39 39 39 38 37 36 36 36 35 35 34 33 33 32 31 30 29 29 28 27 26 25 24 22 21 21 21 20 20 20 19
Wind_Direction
240 240 237 238 238 232 231 236 249 259 258 254 245 241 240 229 224 226 220 228 240 238 232 229 228 234 236 237 237 234 234 236 234 231 232 236 236 238 238 236 236 233 231 230 228 229 228 224 222 227 231 231 231 231 233 236 239 245 250 253 257 261 265 269 272 277 279 281 283 280 271 261 257 254 250 249 249 248 250 253 255 257 259 260 260 261
243 245 242 241 242 241 243 242 246 253 250 247 247 245 241 235 230 230 227 229 238 240 238 233 234 241 239 236 239 240 239 239 237 234 233 233 235 237 237 238 236 232 234 231 226 228 226 222 226 231 233 232 232 233 234 237 240 245 250 252 255 259 263 267 272 277 280 282 284 283 275 264 258 256 252 249 250 250 251 254 257 259 260 261 261 261
243 248 243 236 242 244 245 244 244 247 247 243 242 244 241 234 232 230 225 232 240 240 241 239 238 243 241 238 240 241 242 241 238 236 235 232 233 234 234 236 236 233 233 230 228 230 229 227 231 234 234 234 234 235 237 240 242 245 249 251 253 256 261 265 270 277 281 282 285 285 279 267 260 258 256 252 251 252 253 256 258 259 260 260 261 261
250 250 233 228 242 243 242 241 242 243 243 241 239 241 241 235 236 240 234 237 245 246 248 251 247 245 245 241 236 238 241 240 238 238 236 233 231 232 233 234 235 235 234 232 232 232 231 231 233 235 235 235 236 238 240 242 244 246 248 249 250 252 258 262 267 274 278 280 282 283 279 268 259 257 256 253 253 254 255 257 259 260 260 260 260 260
254 247 226 238 245 242 243 239 240 245 242 239 240 241 243 242 244 246 239 235 245 249 247 251 252 249 248 244 239 240 240 239 240 237 234 232 230 230 233 235 236 237 236 235 234 231 230 230 231 234 235 235 237 239 241 242 244 246 246 246 248 251 255 259 264 269 273 276 278 279 276 266 257 256 255 253 253 255 256 257 259 260 260 260 260 260
251 245 241 249 249 245 247 244 240 244 247 243 239 240 247 251 248 243 238 237 248 252 242 242 251 254 250 244 240 237 235 238 238 233 231 229 228 230 233 235 237 239 239 238 236 232 232 231 231 232 233 235 238 239 240 241 242 243 244 245 247 250 253 256 260 265 268 271 272 274 273 263 255 254 254 253 253 254 255 255 257 259 260 261 262 261
246 244 246 248 248 247 247 248 243 240 249 252 240 236 244 250 247 243 243 244 251 256 242 238 251 258 251 242 237 232 231 233 232 232 232 229 228 230 232 233 234 237 239 239 238 235 234 234 234 233 233 235 238 239 240 241 241 241 241 243 246 248 251 253 257 261 263 265 267 268 268 261 253 253 254 254 253 254 254 255 256 259 260 262 263 263
240 243 248 245 246 246 246 249 242 236 247 252 244 237 241 246 244 243 246 247 252 256 246 240 250 256 253 245 236 229 231 232 229 232 235 232 231 232 234 235 235 237 239 240 240 239 238 237 237 236 236 237 238 239 240 241 241 240 239 241 244 247 249 251 254 257 259 261 262 263 263 258 253 251 251 250 252 253 253 253 256 258 260 261 262 262
242 245 247 242 243 244 246 246 236 234 245 250 250 246 246 248 245 244 247 249 253 255 251 245 246 252 253 246 235 229 233 238 235 232 232 233 234 235 237 240 239 240 243 244 244 245 245 244 242 240 239 239 238 238 239 240 240 239 238 240 243 245 248 249 252 253 254 256 258 259 258 255 252 248 248 249 249 250 251 252 254 256 259 261 261 261
246 247 248 244 243 243 245 249 238 236 244 251 255 251 250 251 247 246 249 251 254 253 253 251 245 248 252 246 237 233 240 244 238 230 229 231 236 239 240 241 242 243 245 246 247 248 248 248 248 246 242 240 239 239 239 239 239 238 237 238 240 243 246 246 248 249 249 252 255 255 253 251 249 246 245 247 247 248 249 250 251 254 257 259 259 259
248 247 252 248 247 247 252 256 250 246 250 255 256 250 248 250 249 249 250 253 255 251 251 251 245 246 252 249 242 237 243 246 230 221 226 232 237 242 243 243 244 247 249 251 252 252 252 251 250 248 245 242 240 239 239 239 238 237 237 237 237 241 243 243 244 245 246 248 250 250 249 248 247 244 242 244 244 245 245 245 247 250 253 255 256 259
246 244 247 247 247 250 254 255 249 247 250 251 251 248 247 247 246 248 249 247 251 253 253 250 243 243 248 252 247 234 233 237 225 221 227 236 244 247 247 248 250 252 254 255 255 255 255 255 253 250 247 245 242 239 238 238 237 237 236 235 235 238 240 240 240 241 242 243 245 246 246 245 245 243 241 241 240 238 238 239 242 245 248 252 255 258
248 245 241 240 243 248 251 250 243 241 244 245 244 245 246 244 242 246 246 244 248 253 255 249 241 242 249 254 246 228 226 231 234 235 236 240 248 250 249 253 255 257 258 258 258 258 257 257 254 250 248 246 244 241 238 236 235 236 236 234 233 235 236 236 236 237 239 239 241 244 244 243 243 243 241 240 237 234 234 234 236 240 243 246 249 252
248 242 233 237 243 243 245 244 238 236 240 242 241 240 242 242 243 246 247 247 249 250 250 248 244 248 255 255 239 227 229 233 235 240 242 243 247 249 252 256 258 260 263 262 262 262 260 258 254 250 248 247 245 242 238 234 233 235 235 233 232 232 232 232 233 235 237 237 239 242 242 242 242 242 241 240 238 235 234 232 232 235 238 241 244 247
253 243 230 237 239 233 239 242 244 247 243 241 243 242 243 245 246 249 252 253 255 251 243 239 246 254 256 250 238 233 236 238 237 237 240 243 245 249 254 257 261 264 267 266 266 266 264 260 256 251 249 246 243 240 236 233 232 233 233 232 229 229 229 230 232 234 234 236 238 239 240 241 241 241 240 241 240 238 236 234 232 233 236 239 242 245
255 249 228 229 237 238 243 244 248 255 248 244 245 242 243 246 248 253 257 258 260 262 251 242 250 261 257 246 242 241 238 237 237 235 236 241 244 249 255 258 262 265 269 270 269 270 267 262 258 253 247 243 241 237 233 230 230 231 231 229 225 226 228 229 231 233 233 234 235 235 237 238 238 239 239 241 242 240 239 237 235 234 235 236 239 243
250 247 220 226 242 243 246 248 247 248 248 249 246 243 246 249 250 255 256 252 253 258 256 252 255 259 257 249 241 238 237 234 234 235 236 239 242 247 254 258 260 263 268 270 269 271 271 265 259 252 243 240 238 233 229 227 227 229 230 226 223 224 227 228 231 232 232 232 233 233 234 235 236 238 240 241 242 241 240 239 237 236 236 235 236 241
250 250 241 243 246 237 241 254 250 244 248 252 250 251 254 251 251 255 256 254 253 256 257 254 255 256 256 252 238 232 235 234 235 236 235 238 241 245 251 254 257 260 264 268 268 270 271 269 261 250 241 238 234 230 227 227 228 230 229 225 223 224 226 227 230 231 231 232 232 233 233 233 235 238 241 244 243 242 241 240 239 239 239 239 237 241
250 254 253 250 247 241 244 253 252 247 245 247 253 260 259 253 252 253 254 257 259 261 262 259 259 259 258 253 236 232 235 233 233 234 234 237 240 243 247 247 251 257 260 264 267 268 269 269 263 253 244 237 233 230 228 229 231 229 226 223 223 225 226 228 230 231 232 233 234 234 233 234 237 240 243 245 244 243 242 242 244 244 243 242 240 242
249 254 256 250 246 248 252 252 252 251 243 242 251 256 254 253 257 257 256 258 260 261 264 265 264 262 260 252 237 236 239 233 229 233 236 237 239 243 246 246 249 255 259 262 264 265 266 266 263 256 248 240 235 233 231 230 229 225 222 222 224 225 226 228 230 230 232 233 234 234 235 237 239 242 245 246 246 245 245 246 248 248 247 245 243 243
251 253 255 253 249 250 254 252 252 255 250 245 249 251 249 250 255 260 259 258 260 263 265 266 265 263 262 255 245 243 241 233 230 234 237 237 238 241 244 246 249 251 256 260 262 264 263 261 259 253 248 244 237 233 231 229 226 222 222 223 224 225 226 228 230 231 232 235 235 235 238 240 240 243 245 247 248 248 247 248 249 250 250 248 247 246
251 251 253 254 253 252 254 255 256 261 259 254 254 255 255 254 254 258 259 258 259 262 264 267 268 268 264 258 255 254 245 236 233 235 237 236 237 239 241 247 250 251 253 256 259 262 261 260 257 251 248 246 240 234 230 227 226 224 224 225 226 227 229 230 232 233 235 236 235 236 239 241 242 244 245 245 248 250 250 249 250 251 252 252 251 250
252 254 255 255 255 256 259 260 258 259 261 259 258 258 260 260 258 259 262 264 264 262 263 266 268 269 267 262 259 255 247 239 236 236 237 238 239 240 242 247 253 254 254 254 255 257 258 257 256 253 251 249 245 240 234 230 229 230 229 228 228 229 230 233 234 235 237 236 236 237 240 243 245 246 247 246 247 250 251 251 251 253 255 255 254 253
252 255 257 258 259 259 260 259 256 256 260 260 257 256 257 259 260 262 265 268 268 264 263 264 265 264 266 266 262 254 247 241 240 239 238 240 243 243 245 251 255 254 253 253 253 253 253 252 252 252 252 251 251 248 242 237 234 234 234 233 234 235 236 237 236 236 237 237 237 238 242 245 248 248 249 250 249 249 251 253 255 256 257 257 256 255
254 255 256 259 261 259 257 256 254 253 257 260 258 256 255 257 262 264 265 266 264 262 261 263 265 265 264 263 260 255 249 244 242 240 238 241 245 246 249 254 255 253 252 252 252 251 251 251 251 250 250 249 249 249 247 244 240 237 236 236 238 240 242 241 239 238 239 239 239 241 244 248 251 251 251 253 253 251 250 253 256 258 258 258 257 257
258 257 257 258 259 259 257 257 258 259 259 262 264 260 254 256 262 264 263 261 260 262 262 261 264 265 260 259 259 256 252 248 244 242 242 245 248 250 253 255 255 254 253 252 252 253 252 251 251 250 249 248 247 247 246 246 244 243 240 240 241 243 244 243 241 240 241 242 242 244 248 251 253 253 253 255 255 252 251 255 258 258 258 258 257 256
259 258 257 258 259 260 263 264 269 271 268 266 268 265 258 257 260 261 260 259 261 265 264 260 263 266 261 258 258 256 254 251 247 247 248 249 250 253 255 256 257 257 256 254 254 253 253 252 251 250 250 250 249 248 247 246 245 244 244 244 245 246 246 245 244 243 243 244 246 248 251 253 253 253 255 257 256 254 257 260 260 259 258 258 257 256
259 259 258 259 260 262 264 266 268 269 268 268 267 265 262 260 260 259 260 261 264 266 263 262 266 267 265 263 261 257 254 253 251 253 254 251 252 255 256 256 258 258 256 255 254 253 253 252 252 252 252 252 251 251 251 250 248 247 247 247 248 248 248 247 247 247 246 247 250 252 251 252 254 255 256 258 259 259 260 260 260 259 258 256 256 257
260 261 261 262 262 263 264 265 266 266 266 267 266 265 263 262 261 260 261 263 264 263 263 266 268 266 266 267 264 258 255 256 256 255 255 255 255 257 257 257 258 258 256 256 254 253 253 253 253 254 254 254 253 252 252 252 252 251 251 251 251 250 250 249 249 249 249 249 251 253 253 254 256 256 256 258 259 260 259 259 259 259 258 257 257 258
261 262 263 264 265 265 265 266 266 266 266 266 265 264 263 262 262 262 262 263 264 263 264 267 267 265 264 265 264 260 259 260 261 259 258 258 257 257 257 258 259 258 257 255 254 253 254 254 254 254 254 255 255 254 254 254 254 253 253 254 254 253 253 252 252 252 252 252 253 255 255 256 257 258 257 258 259 259 259 259 259 258 258 259 259 259
260 262 264 266 267 267 267 268 267 266 267 267 265 264 263 263 262 262 263 264 264 264 265 267 266 265 264 264 264 262 260 262 263 262 260 258 257 257 258 259 260 258 255 253 254 255 255 255 255 255 255 255 255 255 255 255 255 254 254 255 255 255 255 255 255 254 254 255 256 257 257 257 258 259 259 259 260 260 260 260 260 259 259 260 261 261
259 263 266 267 267 267 267 268 268 268 268 266 264 263 263 262 262 263 263 263 264 265 267 266 265 265 266 267 265 263 263 262 261 262 261 260 258 258 258 258 258 257 253 252 255 257 256 256 256 257 257 256 255 255 255 255 255 255 255 256 256 256 257 257 256 256 256 257 258 258 258 258 258 258 259 260 261 261 262 262 261 260 260 260 261 262
260 264 267 267 267 268 268 268 270 270 268 265 265 265 264 263 263 263 262 262 263 264 265 264 264 266 268 268 267 266 266 265 263 262 262 261 258 257 256 257 258 256 252 252 255 256 256 258 259 258 258 258 257 257 257 257 257 256 256 257 257 257 258 258 258 258 258 259 259 259 260 259 259 259 260 261 262 262 262 262 261 261 261 261 261 261
262 265 266 266 267 268 270 271 271 267 263 264 269 270 267 265 265 265 264 264 264 264 265 265 267 269 268 268 268 267 267 267 266 263 261 259 258 258 258 259 257 254 250 251 254 256 258 260 261 261 260 259 258 259 259 258 257 257 257 257 258 258 259 259 259 259 260 260 260 261 261 261 261 261 261 262 263 263 262 262 261 261 261 262 262 262
262 264 264 265 266 268 270 269 265 263 263 266 269 269 268 268 268 268 268 267 266 266 267 267 268 268 268 268 269 267 267 268 266 264 262 260 259 261 261 259 255 251 249 251 255 258 261 262 262 262 261 260 259 259 258 257 257 258 258 258 259 260 259 260 260 260 260 261 261 261 261 261 262 263 263 263 264 264 264 263 263 262 262 262 262 262
261 263 264 264 264 266 266 263 261 265 269 268 265 265 267 268 269 269 268 267 266 267 268 267 268 268 267 268 268 268 269 269 266 264 263 262 261 261 260 257 253 249 249 253 257 260 262 263 262 262 261 261 260 259 258 258 259 259 259 260 260 260 261 261 261 261 261 261 261 261 261 261 262 263 264 264 264 265 265 264 264 263 262 262 262 262
260 262 262 263 263 263 264 263 264 269 270 266 265 267 269 270 271 270 270 269 268 266 267 268 268 268 267 268 269 269 269 269 265 262 261 263 263 261 258 256 255 251 250 254 259 261 262 262 262 262 262 261 261 260 260 260 259 259 260 260 260 261 261 262 262 262 262 262 261 261 261 262 263 263 264 264 265 265 265 265 265 264 263 263 263 262
259 259 260 261 262 262 264 265 266 267 268 266 266 267 270 273 273 272 272 271 268 266 268 270 269 269 268 268 269 270 269 268 265 260 258 260 262 261 258 256 256 254 252 255 259 261 261 261 262 263 263 262 261 261 260 260 260 260 261 261 261 261 262 262 262 262 262 262 262 261 261 261 262 263 264 264 265 265 266 266 265 265 264 264 264 263
258 258 258 259 261 261 262 264 264 265 267 269 268 269 272 274 273 272 272 270 268 268 272 273 272 271 271 270 270 270 268 266 264 260 258 259 261 262 261 257 256 255 255 257 260 262 262 262 264 264 264 262 261 261 261 261 261 261 261 261 261 262 263 263 263 263 263 263 262 262 261 261 261 262 263 264 265 266 266 267 266 265 265 264 264 264
257 257 257 258 259 260 261 263 265 265 267 268 269 271 274 274 274 272 269 269 269 271 273 275 275 274 273 272 271 269 266 265 264 262 260 259 261 263 262 260 259 258 258 259 261 262 263 264 265 264 263 262 261 261 261 261 261 261 261 262 262 262 263 264 264 264 264 264 263 263 262 262 262 262 262 264 265 266 267 267 267 266 265 264 264 265
260 259 259 259 260 261 261 263 265 265 267 269 270 272 274 274 272 269 267 270 272 273 274 275 275 274 273 272 270 268 266 265 265 265 262 260 262 263 262 262 262 261 261 261 262 264 264 264 264 264 264 263 262 262 262 262 262 262 261 262 262 263 264 265 264 264 264 264 264 264 263 263 263 263 263 263 264 266 267 267 267 266 265 264 264 264
265 263 261 260 262 262 263 264 265 265 268 274 275 273 272 271 269 269 271 272 273 274 276 275 274 274 273 271 270 268 267 266 266 265 264 262 263 265 264 264 263 262 262 263 263 264 264 265 265 265 265 264 264 263 263 262 262 262 262 262 263 264 264 264 264 264 264 264 265 265 264 264 263 263 264 264 265 266 267 267 266 265 264 263 263 263
266 266 264 262 263 264 263 264 265 265 268 275 278 275 271 269 271 274 275 274 274 276 276 275 274 274 273 271 270 269 268 268 267 265 264 264 264 265 265 265 264 264 264 264 264 265 266 266 266 266 266 265 265 264 264 263 263 263 263 263 263 264 264 264 263 264 264 265 265 265 265 264 264 263 263 264 265 266 267 267 266 264 263 262 261 260
266 265 266 266 266 266 264 263 266 269 271 276 277 275 273 273 274 275 276 275 276 276 276 275 274 273 272 272 271 270 269 268 268 267 266 265 265 265 265 265 265 264 264 264 265 266 267 267 267 267 267 266 265 265 264 264 264 264 264 264 264 264 263 263 264 264 264 265 265 265 264 264 264 263 263 264 265 266 267 266 264 262 261 260 258 257
267 267 268 268 268 268 266 267 271 275 275 276 276 275 275 276 276 276 277 276 276 275 275 275 274 273 273 273 272 271 270 269 269 268 268 267 266 266 265 265 265 265 265 265 265 266 266 267 267 267 267 266 266 265 265 265 265 265 265 264 264 264 263 263 264 264 264 264 264 264 264 264 263 263 263 264 265 266 266 265 262 260 259 257 255 256
270 271 271 270 270 271 271 270 273 275 275 276 276 276 277 277 277 277 277 276 276 275 275 275 274 274 274 273 272 272 271 270 270 269 268 268 267 267 266 266 266 266 266 266 266 267 267 267 267 267 267 266 266 266 266 266 266 265 265 265 264 264 264 264 264 264 264 264 264 264 264 264 263 263 263 264 265 266 266 263 259 257 256 254 254 254
274 275 273 272 272 274 273 273 275 276 277 277 278 278 279 278 278 278 278 277 277 277 276 276 276 275 275 274 273 272 272 272 271 270 269 269 268 267 267 266 266 267 267 267 266 267 267 267 267 267 267 266 266 266 266 266 266 266 265 265 264 264 264 264 264 264 264 264 264 264 264 263 263 264 263 264 264 264 262 259 256 255 253 252 251 250
276 279 277 275 274 274 276 277 278 279 278 279 279 280 280 280 280 280 280 280 279 279 278 278 277 276 276 274 274 273 273 272 271 271 270 269 269 268 267 267 267 267 267 267 267 267 267 267 267 267 267 266 266 266 266 266 266 265 265 264 264 264 263 263 264 264 264 264 264 264 264 264 264 263 262 262 261 259 257 256 254 253 251 249 246 243
277 279 280 279 278 277 278 281 282 282 281 280 281 282 282 283 283 283 282 282 281 281 280 279 278 277 277 276 275 275 274 273 272 272 271 270 269 269 268 268 268 268 267 267 268 268 268 267 267 267 267 266 266 266 266 266 265 265 264 264 263 263 262 262 262 262 262 263 263 264 263 262 262 261 259 258 256 255 255 255 253 249 247 244 243 242
276 278 281 281 280 279 281 284 286 285 283 283 284 285 285 285 284 284 283 283 282 282 282 281 280 279 278 277 277 276 275 275 274 273 272 271 270 270 269 269 269 269 268 268 268 268 268 268 268 268 267 266 266 265 265 265 265 264 264 263 262 262 261 261 261 261 261 261 261 261 261 260 259 258 256 253 252 251 252 252 250 246 242 239 239 240
277 282 285 284 282 283 284 287 288 286 284 284 286 287 286 286 285 285 285 285 284 284 283 282 282 281 280 279 278 278 277 276 275 274 272 272 271 270 270 270 270 269 269 269 269 268 268 268 268 267 267 266 265 265 265 265 264 264 263 263 262 261 260 259 259 259 259 258 258 258 257 257 257 255 252 249 247 247 246 244 242 241 238 236 234 236